Weather History for Fort Worth NAS, TX

Change the Weather History Date:

Wednesday, August 7, 2013

  Actual Average Record
Temperature  
Mean Temperature 94 °F -  
Max Temperature 107 °F 94 °F 107 °F (2003)
Min Temperature 82 °F 74 °F 63 °F (1997)
Cooling Degree Days 30    
Growing Degree Days 44 (Base 50)    
Moisture  
Dew Point 63 °F    
Average Humidity 38    
Maximum Humidity 58    
Minimum Humidity 22    
Precipitation  
Precipitation 0.00 in - - ()
Sea Level Pressure  
Sea Level Pressure 29.83 in    
Wind  
Wind Speed 14 mph (South)    
Max Wind Speed 20 mph    
Max Gust Speed 23 mph    
Visibility 10 miles    
Events      
Averages and records for this station are not official NWS values.
T = Trace of Precipitation, MM = Missing Value Source: NWS Daily Summary

Daily Weather History Graph

Daily Weather History Graph

Search for Another Location

Airport:

Trip Planner

Search our weather history database for the weather conditions in past years. The results will help you decide how hot, cold, wet, or windy it might be!

Date:

Astronomy

Aug. 07, 2013 Rise Set
Actual Time 6:47 AM CDT 8:22 PM CDT
Civil Twilight 6:21 AM CDT 8:49 PM CDT
Nautical Twilight 5:49 AM CDT 9:20 PM CDT
Astronomical Twilight 5:16 AM CDT 9:54 PM CDT
Moon 7:31 AM CDT (8/7) 8:38 PM CDT (8/7)
Length of Visible Light 14h 27m
Length of Day
13h 34m
New Moon, 1% of the Moon is Illuminated
Aug 7
New Moon
Aug 14
First Quarter
Aug 20
Full
Aug 28
Last Quarter
Sep 5
New

Hourly Weather History & Observations

Time (CDT) Temp. Heat Index Dew Point Humidity Pressure Visibility Wind Dir Wind Speed Gust Speed Precip Events Conditions
12:52 AM 93.0 °F 93.0 °F 61.0 °F 34% 29.84 in 10.0 mi South 17.3 mph 23.0 mph N/A   Clear
1:52 AM 90.0 °F 90.6 °F 63.0 °F 40% 29.84 in 10.0 mi South 19.6 mph - N/A   Clear
2:52 AM 88.0 °F 89.3 °F 64.0 °F 45% 29.83 in 10.0 mi South 17.3 mph - N/A   Clear
3:52 AM 87.1 °F 89.9 °F 66.9 °F 51% 29.83 in 10.0 mi South 17.3 mph 23.0 mph N/A   Clear
4:52 AM 84.9 °F 87.6 °F 66.9 °F 55% 29.83 in 10.0 mi South 16.1 mph - N/A   Clear
5:52 AM 84.0 °F 86.5 °F 66.9 °F 56% 29.83 in 10.0 mi South 11.5 mph - N/A   Clear
5:56 AM 84.2 °F 86.6 °F 66.2 °F 55% 29.88 in 10.0 mi South 11.5 mph - N/A   Clear
6:52 AM 82.9 °F 85.4 °F 66.9 °F 58% 29.84 in 10.0 mi South 10.4 mph - N/A   Partly Cloudy
7:52 AM 82.9 °F 85.4 °F 66.9 °F 58% 29.86 in 10.0 mi South 13.8 mph - N/A   Scattered Clouds
8:52 AM 87.1 °F 89.9 °F 66.9 °F 51% 29.87 in 10.0 mi South 12.7 mph - N/A   Partly Cloudy
9:52 AM 90.0 °F 92.8 °F 66.9 °F 46% 29.88 in 10.0 mi South 10.4 mph - N/A   Partly Cloudy
10:52 AM 93.9 °F 97.5 °F 66.9 °F 41% 29.89 in 10.0 mi SSW 10.4 mph - N/A   Scattered Clouds
11:52 AM 97.0 °F 100.4 °F 66.0 °F 36% 29.88 in 10.0 mi SSW 9.2 mph 19.6 mph N/A   Scattered Clouds
12:52 PM 100.0 °F 104.2 °F 66.0 °F 33% 29.86 in 10.0 mi SSW 11.5 mph 18.4 mph N/A   Partly Cloudy
1:52 PM 102.9 °F 106.1 °F 64.0 °F 28% 29.83 in 10.0 mi South 11.5 mph 18.4 mph N/A   Partly Cloudy
2:52 PM 105.1 °F 107.8 °F 62.1 °F 25% 29.83 in 10.0 mi South 12.7 mph - N/A   Partly Cloudy
3:52 PM 107.1 °F 108.9 °F 60.1 °F 22% 29.80 in 10.0 mi SSE 12.7 mph 17.3 mph N/A   Partly Cloudy
4:52 PM 107.1 °F 108.9 °F 61.0 °F 22% 29.78 in 10.0 mi South 10.4 mph 18.4 mph N/A   Partly Cloudy
5:52 PM 106.0 °F 107.1 °F 60.1 °F 22% 29.76 in 10.0 mi South 15.0 mph 21.9 mph N/A   Partly Cloudy
6:52 PM 104.0 °F 104.0 °F 57.9 °F 22% 29.75 in 10.0 mi SSE 13.8 mph 21.9 mph N/A   Partly Cloudy
7:52 PM 102.0 °F 102.2 °F 59.0 °F 24% 29.75 in 10.0 mi SSE 15.0 mph - N/A   Partly Cloudy
8:52 PM 100.0 °F 100.2 °F 59.0 °F 26% 29.77 in 10.0 mi SSE 11.5 mph - N/A   Clear
9:52 PM 97.0 °F 96.5 °F 59.0 °F 28% 29.80 in 10.0 mi SSE 10.4 mph - N/A   Clear
10:52 PM 91.9 °F 91.8 °F 61.0 °F 35% 29.83 in 10.0 mi South 8.1 mph - N/A   Clear
11:52 PM 91.9 °F 91.5 °F 60.1 °F 34% 29.83 in 10.0 mi SSE 6.9 mph - N/A   Clear